Location: Brodeslavy
(49.9527°N, 13.5567°E)
Time: 15:34:23
(UTC+00:00)

Cosmos 1606 - Pass Details

Date: 17 June 2025
Orbit: 376 x 384 km, 82.5° (Epoch: 20 July)

Event Time Altitude Azimuth Distance (km) Brightness Sun altitude
Rises 23:39:27 0° 341° (NNW) 2,259 7.1 -16.3°
Reaches altitude 10° 23:41:34 10° 331° (NNW) 1,401 5.7 -16.2°
Maximum altitude 23:44:17 31° 267° (W) 690 3.2 -16.2°
Enters shadow 23:44:46 30° 247° (WSW) 721 3.1 -16.2°
